GW1540 Weather Reports


time (UTC)temp
C
wind
direction
speed
KPH
gust
KPH
rain 1hr
cm
rain 24hr
cm
rain mn
cm
humidity
%
barometer
mb
20260905224609 13 175 0.0 0.0 0.00 0.03 0.00 92 1021.5
20260905223049 14 175 0.0 0.0 0.00 0.03 0.00 92 1021.3
20260905220205 14 175 0.0 3.2 0.00 0.03 0.00 94 1021.2
20260905214550 13 175 0.0 3.2 0.00 0.03 0.03 93 1021.2
20260905211822 13 175 0.0 0.0 0.00 0.03 0.03 91 1020.8
20260905210107 13 175 0.0 0.0 0.00 0.03 0.03 91 1020.7
20260905203049 15 175 0.0 0.0 0.00 0.03 0.03 90 1020.5
20260905200104 16 175 0.0 0.0 0.00 0.03 0.03 89 1020.1
20260905194552 16 175 0.0 3.2 0.00 0.03 0.03 88 1020.1
20260905193050 17 175 0.0 3.2 0.00 0.03 0.03 89 1020.1
20260905191547 17 175 0.0 3.2 0.00 0.03 0.03 88 1019.8
20260905184612 17 175 0.0 3.2 0.00 0.03 0.03 88 1019.5
20260905183045 18 175 0.0 3.2 0.00 0.03 0.03 86 1019.4
20260905181541 18 175 1.6 3.2 0.00 0.03 0.03 87 1019.1
20260905174622 20 175 0.0 3.2 0.00 0.03 0.03 84 1018.8
20260905173059 20 175 0.0 4.8 0.00 0.03 0.03 84 1018.6
20260905170055 21 197 1.6 6.4 0.00 0.03 0.03 79 1018.2
20260905164545 22 213 1.6 4.8 0.00 0.03 0.03 78 1017.9
20260905161606 23 238 1.6 4.8 0.00 0.03 0.03 69 1017.7
20260905160105 24 275 1.6 6.4 0.00 0.03 0.03 68 1017.6
20260905153039 25 207 1.6 8.0 0.00 0.03 0.03 63 1017.7
20260905150051 26 215 0.0 12.9 0.00 0.03 0.03 62 1017.6
20260905143318 26 267 3.2 9.7 0.00 0.03 0.03 62 1017.5
20260905140054 26 309 3.2 11.3 0.00 0.03 0.03 63 1017.7
20260905133051 26 231 4.8 12.9 0.00 0.03 0.03 64 1017.6
20260905131536 26 275 3.2 9.7 0.00 0.03 0.03 64 1017.7
20260905124600 25 224 1.6 8.0 0.00 0.03 0.03 63 1017.8
20260905123049 25 217 3.2 11.3 0.00 0.03 0.03 65 1017.9
20260905120109 25 161 1.6 11.3 0.00 0.03 0.03 64 1018.2
20260905114606 25 294 6.4 12.9 0.00 0.03 0.03 62 1018.0
20260905113127 25 298 1.6 11.3 0.00 0.03 0.03 65 1018.0
20260905111548 25 161 3.2 11.3 0.00 0.03 0.03 67 1018.2
20260905104615 24 312 1.6 6.4 0.00 0.03 0.03 67 1018.3
20260905103036 23 190 4.8 12.9 0.00 0.03 0.03 67 1018.3
20260905100113 23 263 3.2 8.0 0.00 0.03 0.03 65 1018.2
20260905093109 23 157 1.6 6.4 0.00 0.03 0.03 67 1018.2
20260905091547 22 75 0.0 3.2 0.00 0.03 0.03 73 1017.9
20260905084539 22 61 1.6 3.2 0.00 0.03 0.03 73 1017.7
20260905081603 22 61 0.0 6.4 0.03 0.03 0.03 77 1017.5
20260905080042 20 206 0.0 3.2 0.03 0.03 0.03 84 1017.2
20260905073108 18 206 0.0 1.6 0.03 0.03 0.03 90 1017.3
20260905070108 16 206 1.6 3.2 0.00 0.00 0.00 95 1017.3
20260905063110 14 206 1.6 3.2 0.00 0.00 0.00 95 1017.1
20260905061540 13 206 0.0 3.2 0.00 0.00 0.00 95 1017.2
20260905054609 13 206 0.0 3.2 0.00 0.00 0.00 95 1017.4
20260905051550 11 206 0.0 3.2 0.00 0.00 0.00 95 1017.3
20260905050043 11 206 0.0 3.2 0.00 0.00 0.00 95 1017.3
20260905043100 10 206 0.0 3.2 0.00 0.00 0.00 95 1016.8
20260905040059 10 206 0.0 3.2 0.00 0.00 0.00 94 1017.1
20260905034536 10 206 0.0 3.2 0.00 0.00 0.00 94 1017.3
20260905031613 10 206 0.0 0.0 0.00 0.00 0.00 94 1017.3
20260905030039 10 206 0.0 0.0 0.00 0.00 0.00 94 1017.5
20260905023058 10 206 0.0 0.0 0.00 0.00 0.00 94 1017.5
20260905021546 10 206 0.0 0.0 0.00 0.00 0.00 93 1017.6
20260905020046 11 206 0.0 0.0 0.00 0.00 0.00 94 1017.6
20260905014535 11 206 0.0 0.0 0.00 0.00 0.00 93 1017.5
20260905013033 11 206 0.0 3.2 0.00 0.00 0.00 94 1017.6
20260905010106 11 206 0.0 0.0 0.00 0.00 0.00 93 1017.7
20260905004550 11 206 0.0 0.0 0.00 0.00 0.00 94 1017.9
20260905003045 11 206 0.0 0.0 0.00 0.00 0.00 93 1018.0
20260905001541 11 206 0.0 0.0 0.00 0.00 0.00 92 1018.1
20260904234537 12 206 0.0 0.0 0.00 0.00 0.00 93 1018.4
20260904231552 12 206 0.0 0.0 0.00 0.00 0.00 92 1018.5
20260904230033 12 206 0.0 0.0 0.00 0.00 0.00 92 1018.7